Victorville, CA

9:53 AM PDT on June 28, 2017 (GMT -0700)
Southern California Logistics

Weather History for KVCV - March, 2014

Change the Weather History Date:

Friday, March 14, 2014

  Actual Average (KSBD) Record (KSBD)
Temperature  
Mean Temperature 58 °F -  
Max Temperature 75 °F 69 °F 91 °F (2013)
Min Temperature 42 °F 43 °F 42 °F (2012)
Degree Days  
Heating Degree Days 6    
Growing Degree Days 8 (Base 50)    
Moisture  
Dew Point 15 °F    
Average Humidity 21    
Maximum Humidity 39    
Minimum Humidity 7    
Precipitation  
Precipitation 0.00 in - - ()
Sea Level Pressure  
Sea Level Pressure 30.09 in    
Wind  
Wind Speed 6 mph (WSW)    
Max Wind Speed 14 mph    
Max Gust Speed 21 mph    
Visibility 10 miles    
Events      
Averages and records for this station are not official NWS values.
T = Trace of Precipitation, MM = Missing Value Source: NWS Daily Summary

Daily Weather History Graph

Daily Weather History Graph

Search for Another Location

Airport or City:

Trip Planner

Search our weather history database for the weather conditions in past years. The results will help you decide how hot, cold, wet, or windy it might be!

Date:

Astronomy

Mar. 14, 2014 Rise Set
Actual Time 7:01 AM PDT 6:56 PM PDT
Civil Twilight 6:36 AM PDT 7:21 PM PDT
Nautical Twilight 6:07 AM PDT 7:50 PM PDT
Astronomical Twilight 5:37 AM PDT 8:20 PM PDT
Moon 5:25 PM PDT (3/14) 5:40 AM PDT (3/14)
Length of Visible Light 12h 45m
Length of Day
11h 55m
Waxing Gibbous, 96% of the Moon is Illuminated
Mar 14
Waxing Gibbous
Mar 16
Full
Mar 23
Last Quarter
Mar 30
New
Apr 7
First Quarter

Hourly Weather History & Observations

Time (PDT) Temp. Windchill Dew Point Humidity Pressure Visibility Wind Dir Wind Speed Gust Speed Precip Events Conditions
12:15 AM 48.2 °F - 21.2 °F 34% 30.03 in 10.0 mi WSW 11.5 mph - N/A   Unknown
12:35 AM 50.0 °F - 21.2 °F 32% 30.03 in 10.0 mi West 8.1 mph - N/A   Unknown
12:55 AM 48.2 °F - 21.2 °F 34% 30.03 in 10.0 mi West 4.6 mph - N/A   Unknown
1:15 AM 48.2 °F - 21.2 °F 34% 30.03 in 10.0 mi Calm Calm - N/A   Unknown
1:35 AM 50.0 °F - 19.4 °F 30% 30.04 in 10.0 mi Calm Calm - N/A   Unknown
1:55 AM 50.0 °F - 19.4 °F 30% 30.04 in 10.0 mi WSW 3.5 mph - N/A   Unknown
2:15 AM 48.2 °F - 19.4 °F 32% 30.04 in 10.0 mi Calm Calm - N/A   Unknown
2:35 AM 48.2 °F - 19.4 °F 32% 30.04 in 10.0 mi SE 4.6 mph - N/A   Unknown
2:55 AM 48.2 °F - 17.6 °F 30% 30.04 in 10.0 mi Calm Calm - N/A   Unknown
3:15 AM 48.2 °F - 17.6 °F 30% 30.04 in 10.0 mi Calm Calm - N/A   Unknown
3:35 AM 48.2 °F - 17.6 °F 30% 30.03 in 10.0 mi Calm Calm - N/A   Unknown
3:55 AM 48.2 °F - 17.6 °F 30% 30.03 in 10.0 mi SSE 4.6 mph - N/A   Unknown
4:15 AM 48.2 °F - 17.6 °F 30% 30.04 in 10.0 mi Calm Calm - N/A   Unknown
4:35 AM 46.4 °F 45.2 °F 15.8 °F 29% 30.04 in 10.0 mi SW 3.5 mph - N/A   Unknown
4:55 AM 46.4 °F 45.2 °F 17.6 °F 32% 30.04 in 10.0 mi SSW 3.5 mph - N/A   Unknown
5:15 AM 44.6 °F - 17.6 °F 34% 30.05 in 10.0 mi Calm Calm - N/A   Unknown
5:35 AM 44.6 °F 42.2 °F 17.6 °F 34% 30.05 in 10.0 mi South 4.6 mph - N/A   Unknown
5:55 AM 44.6 °F 42.2 °F 17.6 °F 34% 30.06 in 10.0 mi South 4.6 mph - N/A   Unknown
6:15 AM 42.8 °F 39.3 °F 17.6 °F 36% 30.07 in 10.0 mi South 5.8 mph - N/A   Unknown
6:35 AM 42.8 °F 41.1 °F 19.4 °F 39% 30.07 in 10.0 mi SSW 3.5 mph - N/A   Unknown
6:55 AM 44.6 °F 42.2 °F 19.4 °F 37% 30.08 in 10.0 mi South 4.6 mph - N/A   Unknown
7:15 AM 42.8 °F 39.3 °F 19.4 °F 39% 30.08 in 10.0 mi SSW 5.8 mph - N/A   Unknown
7:35 AM 44.6 °F 41.4 °F 19.4 °F 37% 30.09 in 10.0 mi South 5.8 mph - N/A   Unknown
7:55 AM 46.4 °F 43.5 °F 21.2 °F 37% 30.10 in 10.0 mi South 5.8 mph - N/A   Unknown
8:15 AM 48.2 °F - 21.2 °F 34% 30.11 in 10.0 mi SSE 3.5 mph - N/A   Unknown
8:35 AM 51.8 °F - 21.2 °F 30% 30.11 in 10.0 mi South 3.5 mph - N/A   Unknown
8:55 AM 53.6 °F - 21.2 °F 28% 30.12 in 10.0 mi Calm Calm - N/A   Unknown
9:15 AM 55.4 °F - 21.2 °F 26% 30.12 in 10.0 mi Calm Calm - N/A   Unknown
9:35 AM 60.8 °F - 19.4 °F 20% 30.13 in 10.0 mi West 11.5 mph - N/A   Clear
9:55 AM 62.6 °F - 19.4 °F 19% 30.13 in 10.0 mi West 10.4 mph - N/A   Clear
10:15 AM 62.6 °F - 19.4 °F 19% 30.14 in 10.0 mi West 9.2 mph - N/A   Scattered Clouds
10:35 AM 64.4 °F - 17.6 °F 16% 30.14 in 10.0 mi West 9.2 mph - N/A   Clear
10:55 AM 64.4 °F - 17.6 °F 16% 30.14 in 10.0 mi West 9.2 mph - N/A   Clear
11:15 AM 66.2 °F - 15.8 °F 14% 30.14 in 10.0 mi WNW 6.9 mph - N/A   Clear
11:35 AM 66.2 °F - 15.8 °F 14% 30.14 in 10.0 mi WNW 5.8 mph - N/A   Clear
11:55 AM 69.8 °F - 12.2 °F 11% 30.14 in 10.0 mi NNW 5.8 mph - N/A   Clear
12:15 PM 69.8 °F - 14.0 °F 12% 30.13 in 10.0 mi West 6.9 mph - N/A   Clear
12:35 PM 69.8 °F - 12.2 °F 11% 30.13 in 10.0 mi West 3.5 mph - N/A   Scattered Clouds
12:55 PM 71.6 °F - 14.0 °F 11% 30.12 in 10.0 mi WNW 3.5 mph - N/A   Scattered Clouds
1:15 PM 71.6 °F - 14.0 °F 11% 30.12 in 10.0 mi Calm Calm - N/A   Scattered Clouds
1:35 PM 73.4 °F - 12.2 °F 10% 30.11 in 10.0 mi NNW 8.1 mph - N/A   Clear
1:55 PM 73.4 °F - 12.2 °F 10% 30.10 in 10.0 mi West 3.5 mph - N/A   Scattered Clouds
2:15 PM 73.4 °F - 8.6 °F 8% 30.09 in 10.0 mi West 3.5 mph - N/A   Clear
2:35 PM 73.4 °F - 10.4 °F 9% 30.08 in 10.0 mi North 3.5 mph - N/A   Clear
2:55 PM 73.4 °F - 10.4 °F 9% 30.08 in 10.0 mi WNW 4.6 mph - N/A   Clear
3:15 PM 75.2 °F - 8.6 °F 8% 30.08 in 10.0 mi West 9.2 mph 20.7 mph N/A   Clear
3:35 PM 75.2 °F - 8.6 °F 8% 30.07 in 10.0 mi WNW 6.9 mph - N/A   Scattered Clouds
3:55 PM 75.2 °F - 8.6 °F 8% 30.07 in 10.0 mi West 9.2 mph - N/A   Scattered Clouds
4:15 PM 73.4 °F - 6.8 °F 8% 30.07 in 10.0 mi WSW 3.5 mph 9.2 mph N/A   Clear
4:35 PM 75.2 °F - 6.8 °F 7% 30.07 in 10.0 mi WNW 6.9 mph - N/A   Clear
4:55 PM 75.2 °F - 6.8 °F 7% 30.06 in 10.0 mi WNW 8.1 mph - N/A   Clear
5:15 PM 75.2 °F - 8.6 °F 8% 30.07 in 10.0 mi NW 10.4 mph - N/A   Clear
5:35 PM 73.4 °F - 10.4 °F 9% 30.07 in 10.0 mi WNW 10.4 mph 16.1 mph N/A   Clear
5:55 PM 73.4 °F - 10.4 °F 9% 30.06 in 10.0 mi WNW 13.8 mph - N/A   Clear
6:15 PM 71.6 °F - 10.4 °F 9% 30.07 in 10.0 mi WNW 11.5 mph 17.3 mph N/A   Clear
6:35 PM 69.8 °F - 10.4 °F 10% 30.08 in 10.0 mi WNW 11.5 mph - N/A   Clear
6:55 PM 66.2 °F - 14.0 °F 13% 30.09 in 10.0 mi WNW 9.2 mph - N/A   Clear
7:15 PM 64.4 °F - 12.2 °F 13% 30.09 in 10.0 mi NW 6.9 mph - N/A   Clear
7:35 PM 64.4 °F - 10.4 °F 12% 30.10 in 10.0 mi WSW 5.8 mph - N/A   Clear
7:55 PM 60.8 °F - 10.4 °F 14% 30.11 in 10.0 mi WSW 5.8 mph - N/A   Clear
8:15 PM 62.6 °F - 8.6 °F 12% 30.12 in 10.0 mi West 6.9 mph - N/A   Clear
8:35 PM 59.0 °F - 8.6 °F 14% 30.12 in 10.0 mi WSW 8.1 mph - N/A   Clear
8:55 PM 57.2 °F - 8.6 °F 14% 30.13 in 10.0 mi WSW 9.2 mph - N/A   Clear
9:15 PM 57.2 °F - 6.8 °F 13% 30.14 in 10.0 mi West 9.2 mph - N/A   Clear
9:35 PM 57.2 °F - 6.8 °F 13% 30.15 in 10.0 mi West 10.4 mph - N/A   Clear
9:55 PM 57.2 °F - 8.6 °F 14% 30.16 in 10.0 mi West 9.2 mph - N/A   Clear
10:15 PM 57.2 °F - 12.2 °F 17% 30.17 in 10.0 mi WSW 11.5 mph - N/A   Clear
10:35 PM 55.4 °F - 12.2 °F 18% 30.15 in 10.0 mi WSW 10.4 mph - N/A   Clear
10:55 PM 55.4 °F - 14.0 °F 20% 30.16 in 10.0 mi West 10.4 mph - N/A   Clear
11:15 PM 55.4 °F - 15.8 °F 21% 30.17 in 10.0 mi West 8.1 mph - N/A   Clear
11:35 PM 57.2 °F - 17.6 °F 21% 30.18 in 10.0 mi WSW 9.2 mph - N/A   Clear
11:55 PM 55.4 °F - 17.6 °F 23% 30.17 in 10.0 mi WSW 6.9 mph - N/A   Clear